Tracking 31027 objects as of 19-Jul-2025
HD Live streaming from Space Station
objects crossing your sky now

DELTA 1 DEB

Track DELTA 1 DEB now!
10-day predictions


NORAD ID: 21438
Int'l Code: 1975-052DW
Perigee: 1,089.5 km
Apogee: 1,211.6 km
Inclination: 99.7 °
Period: 108.2 minutes
Semi major axis: 7521 km
RCS: 0.0118 m2 (small)
Launch date: June 12, 1975
Source: United States (US)
Launch site: AIR FORCE WESTERN TEST RANGE (AFWTR)

Note: This is SATELLITE DEBRIS
Your satellite tracking list
IRIDIUM 135
Track 1 satellite(s)




NASA's NSSDC Master Catalog

Two Line Element Set (TLE):
1 21438U 75052DW  25199.77689406  .00000067  00000-0  22588-3 0  9991
2 21438  99.7170 128.2033 0081193 358.4730  27.9141 13.30890842659893
Source of the keplerian elements: AFSPC